Погода в Уральске

Погода в Уральске : погода сейчас, прогноз погоды и архив. Всё, что Вы хотите узнать о погоде в Уральске!

Хотите узнать прогноз погоды в Уральске? Тогда Вам сюда: Погода в Уральске

Поиск расширенной информации на нашем сайте:

Другие новости

Новости СМИ2

Главная страница сайта

Новости сайта

03.07.2017

Напоминаем, что на нашем специализированном сайте Метеоцентр.Азия вы можете получить высокодетализированные автоматические прогнозы погоды по пунктам России, СНГ и мира в авиационном формате (включающие направление и скорость ветра, видимость, явления погоды, количество и форму облачности, нижнюю и верхнюю границу облачности).


Погода в Уральске - сегодня

Время (UTC), дата Ветер
(°,м/с) 
Видим.   Явления Облачность Т
(°С)
Тd
(°С)
f(%) Тe
(°С)
Pmin
(гПа)
dP
(гПа)
Po
(мм)
O2
(г/м3)
Тmin Tmax R s Состояние
почвы
03 20.02.18 140 (ЮВ) н/о  слаб. снег  10/10 600 м 
[Ns]
-7.3 -9 88 -7  1019.1  -1.1  761  316      15  равномерный
сухой снег
100% 
09 20.02.18 300 (СЗ) 10 км  {снег}  1/0 средняя 
[Ac trans]
-5.3 -9.5 72 -7  1019.1  -0.1  761  314           
18 20.02.18 тихо ()   н/о    ясно 
-15.6 -17.7 84 -16  1019.9  0.5  761  327    -4.8  0.5     
21 20.02.18 тихо ()   н/о    ясно 
-12.2 -14.3 84 -12  1019.6  -0.2  761  322           
00 21.02.18 250 (З) н/о    10/10 600 м 
[Sc]
-9.3 -10.5 91 -9  1020.4  0.8  762  319           
06 21.02.18 230 (ЮЗ) 10 км    9/0 средняя 
[As trans]
-13.6 -15.7 84 -16  1022.3  1.3  763  325  -16.1         
09 21.02.18 260 (З) 10 км    10/0 средняя 
[As op]
-7.7 -11.8 72 -9  1022.8  0.6  764  318           
12 21.02.18 230 (ЮЗ) 10 км    ясно 
-6.8 -10.6 74 -9  1022.8  764  317           
15 21.02.18 250 (З) н/о    ясно 
-10.8 -12.8 85 -14  1023.6  0.8  764  322    -6       
18 21.02.18 250 (З) н/о    ясно 
-13.4 -15.2 86 -16  1024.6  0.9  765  325    -6       
21 21.02.18 220 (ЮЗ) н/о    ясно 
-16.7 -18.9 83 -17  1025.3  0.6  765  330           
00 22.02.18 тихо ()   н/о    ясно 
-19.6 -22.3 79 -20  1025.3  765  334           
06 22.02.18 тихо ()   10 км    9/0 верхняя 
[Cs]
-17.6 -20.1 81 -18  1026.1  0.5  766  331  -21.2         
09 22.02.18 310 (СЗ) 10 км    8/0 верхняя 
[Cs]
-12 -16.2 71 -12  1025.8  -0.2  766  324           
12 22.02.18 310 (СЗ) 10 км    9/0 верхняя 
[Cs]
-10.1 -14.9 68 -12  1025.5  -0.2  766  322           
15 22.02.18 310 (СЗ) н/о    9/0 верхняя 
[Cs]
-13.1 -16.1 78 -13  1025.6  766  325    -9.1       
18 22.02.18 тихо ()   н/о    ясно 
-17.6 -19.9 82 -18  1026.1  0.4  766  331    -9.1       
21 22.02.18 тихо ()   н/о    ясно 
-21.7 -24.8 76 -22  1026.5  0.3  766  337           
00 23.02.18 тихо ()   н/о    ясно 
-24.5 -27.8 74 -25  1026.5  766  341           
06 23.02.18 тихо ()   10 км    ясно 
-22.6 -26 74 -23  1026.8  0.6  766  338  -26.5         
09 23.02.18 320 (СЗ) 10 км    ясно 
-15.1 -21.3 59 -15  1026.6  766  328           
12 23.02.18 350 (С) 10 км    ясно 
-12.6 -19.2 58 -13  1026.4  -0.2  766  325           
15 23.02.18 тихо ()   н/о    ясно 
-18.9 -22.4 74 -19  1026.5  766  333    -12.4       
18 23.02.18 тихо ()   н/о    ясно 
-23.8 -27.4 72 -24  1027.3  0.7  767  340    -12.4       
21 23.02.18 тихо ()   н/о    ясно 
-26.8 -30.8 69 -27  1027.2  -0.2  767  344           
Время (UTC), дата Ветер
(°,м/с) 
Видим.   Явления Облачность Т
(°С)
Тd
(°С)
f(%) Тe
(°С)
Pmin
(гПа)
dP
(гПа)
Po
(мм)
O2
(г/м3)
Тmin Tmax R s Состояние
почвы

Для получения пояснительной информации подведите курсор к названию столбца.

ПОГОДА в Уральске - архив

Всё, что Вы хотите узнать о погоде в Уральске - удобно и подробно!

Выберите нужную дату (начиная с 1 января 2015* года) и нажмите кнопку "Найти".
Будут отображены архивные сводки погоды по пункту Уральск, начиная с указанной даты.


Отображать данные в формате CSV (для использования в таблицах Excel)


Внимание! Наш архив погоды предназначен исключительно для личного некоммерческого использования в познавательных целях. Если Вам необходимы официальные справки о состоянии погоды (для производственных, юридических, коммерческих и т.п. целей), обращайтесь в органы Росгидромета.

*Примечание: данная дата относится к архиву по метеостанциям СССР (Россия, СНГ, Балтия).
Архив по метеостанциям Зарубежной Европы и Азии (кроме Китая) хранится 10 дней, по другим регионам земного шара (Китай, Африка, Америка, Австралия, Океания) - 1 день.

Уральск - район местоположения метеостанции


Название, широта, долгота, высота метеостанции:
Уральск (город) 51.2°ш. 51.3°д. 37 м над ур. моря [Казахстан]

Дополнительная информация

В oтличие oт бoльшинства пoгoдных сайтoв мы публикуем пoдрoбную метеoинфoрмацию в детальнoм прoфессиoнальнoм фoрмате.

Характеристики температуры и влажнoсти вoздуха измеряются на высoте 2 м в тени вдали oт зданий и деревьев.
Скoрoсть ветра измеряется на высoте 10 м (на урoвне рoста челoвека скoрoсть ветра ниже в 1.5-2 раза). Если метеoстанция нахoдится в гoрoде или в лесу, тo скoрoсть ветра занижена на 2-4 м/с пo сравнению с oткрытым местoм. Скoрoсть ветра над акватoриями крупных рек и oзёр, а также на вершинах хoлмoв на 2-5 м/с выше, чем в oбычных услoвиях.
Атмoсфернoе давление в разных тoчках местнoсти мoжет значительнo oтличаться oт давления на метеoстанции, в зависимoсти oт услoвий рельефа (при пoдъёме на 10 м давление пoнижается примернo на 1 мм рт.ст.).